Weather in Koblenz

Germany     50°21′15″N   7°35′50″E
temp.,
°C
wind,
m/s
gust,
m/s
humid.,
%
clouds,
%
prec.,
mm/h
press.,
hPa
HPBL,
m
19 april, mon
mon1923:00+7sw1192100 0.2 102111
02:00+6w1193100 0.2 102012
05:00+6nw1196100 0.4 101921
08:00+6ne1199100 1.9 102081
11:00+7ne0095100 0.6 102082
14:00+11nw227593 0.8 1019791
17:00+11n227075 0.6 1018887
20:00+8nnw228498 0.6 101820
20 april, tue
tue2023:00+5nnw0093100 0.0 101911
02:00+4ese009537 0.0 101910
05:00+3n00965 0.0 101910
08:00+5nw00915 0.0 101980
11:00+12n11615 0.0 1018751
14:00+15n124986 0.1 10161792
17:00+15nw115052 0.0 10151340
20:00+11nne227646 0.1 101533
21 april, wed
wed2123:00+8wsw008694 0.0 101611
02:00+9wnw0085100 0.0 101611
05:00+8nnw1186100 0.0 101612
08:00+9nnw1185100 0.0 101622
11:00+11nnw2470100 0.1 1017483
14:00+14nnw455511 0.1 10161213
17:00+14nnw5551100 0.0 10161587
20:00+9n487554 0.1 1018706
22 april, thu
thu2223:00+7n377139 0.0 1020684
02:00+2n25835 0.0 1021140
05:00+1nnw1289100 0.0 102246
08:00+2nnw2677100 0.0 1022553
11:00+7nnw465461 0.0 10221347
14:00+10nnw684589 0.0 10221903
17:00+9nw575178 0.0 10221737
20:00+7nw410695 0.1 1023757
23 april, fri
fri2323:00+3nw24785 0.0 102582
02:000nw11925 0.0 102618
05:00−1wnw11955 0.0 102713
08:00+2nw1286100 0.0 1028201
11:00+6n34615 0.0 1028971
14:00+11nnw34445 0.0 10261508
17:00+12nnw45425 0.0 10261718
20:00+8nw24665 0.0 102676